Location: Dealu Mare
(46.0500°N, 22.8167°E)
Time: 08:30:14
(UTC+00:00)

COSMOS 2406 - Pass Details

Date: 15 January 2026
Orbit: 843 x 861 km, 71.0° (Epoch: 9 February)

Event Time Altitude Azimuth Distance (km) Brightness Sun altitude
Exits shadow 04:50:22 - 337° (NNW) 3,063 5.7 -13.0°
Reaches altitude 10° 04:51:53 10° 340° (NNW) 2,496 5.3 -12.7°
Maximum altitude 04:57:34 60° 60° (ENE) 982 3.8 -11.8°
Drops below altitude 10° 05:03:13 10° 140° (SE) 2,490 6.7 -10.9°
Sets 05:05:42 0° 144° (SE) 3,424 7.4 -10.5°
